NOAA 16 DEB, 41249

Orbit data source: Space-Track

NOAA 16 DEB, 41249 is space debris in SSO originally from a launch on Thu, 21 Sep 2000 UTC launched from the Air Force Western Test Range (AFWTR). Debris objects in space refer to the collection of defunct objects orbiting the Earth. Examples of debris include non-operational satellites, rocket bodies, and fragments generated from explosions, collisions, or faulty payload assembly.

Loading next visibility...
Identifier
41249, 2000-055EZ
Orbit
SSO
Country
Flag of USUS
Related business
Manufacturer
Unknown
Mission
Spacecraft
Bus & Motor
Unknown
Mass
Unknown
Launch date (UTC)
2000-09-21 (26 years ago)
Launch vehicle
Unknown
Launch site
Air Force Western Test Range (AFWTR)
Object type
Payload
Rocket body
Debris
Shape & HBR
Unknown shape, 0.1 m
Radar Cross Section
Medium (>0.1 m² and <1 m²)

Expand to show TLE details & history
Last TLE update: 2 days ago

TLE from 2 days ago
0 NOAA 16 DEB
1 41249U 00055EZ  26207.11130265  .00007653  00000-0  15639-2 0  9993
2 41249  98.9564  82.6839 0027860 273.8080  85.9933 14.60934200551490
Epoch: 2026-07-26T02:40Z
TLE epoch observation values (Epoch: 2026-07-26T02:40:16.548Z)
Latitude
-0.00004°
Longitude
98.80103°
Altitude
691.8 km
Speed
7.511 km/s
True Right ascension
05h 30m 44s
True Declination
0° 00' 00"
Sunlit
Object was in daylight at epoch
Visualization orbit readout
Latitude
Unknown
Longitude
Unknown
Altitude
Unknown
Speed
Unknown
Apparent Right ascension
Unknown
Apparent Declination
Unknown
Sunlit
N/A
Visualization observer readout
Local Sidereal Time
17:37:08
Azimuth
Unknown
Elevation
Unknown
Doppler factor
Unknown
Orbital elements
Apogee altitude
706.96 km
Perigee altitude
667.591 km
Semi-major axis
7,065.412 km
Eccentricity
0.00279
Inclination
98.9564°
RAAN
82.6839°
Arg. of periapsis
273.808°
True anomaly
86.31185°
Mean anomaly
85.9933°
Eccentric anomaly
86.15257°
Mean motion
3.65458 °/min
Orbital period
98.51 mins
BSTAR
0.0015639
Loading maneuver chart data...
Computing Atmospheric mass density...
Loading historical data...
Loading historical data...
Loading historical data...
Loading historical data...
Loading historical data...
Loading historical data...
Loading historical data...

Documentation

Showing up to 5 results
|